Simultaneous Nadir Overpasses (SNOs) Predictions

Prediction of SNOs between GOES-16 and NPP Satellite Orbit:

Table of predicted SNOs for the next 14.0 days since TLE Epoch: 5/30/2025
Index Date Time (GOES-16) GOES-16 Lat,Lon NPP Lat,Lon Distance(km) Time Diff (sec)
1 05/31/2025 08:15:42 -0.01,-101.50 0.09,-101.95 51.78 80
2 06/02/2025 20:16:20 0.00,-102.84 0.00,-102.78 6.59 80
3 06/05/2025 08:19:29 -0.00,-104.16 -0.11,-103.58 64.91 80
4 06/06/2025 20:44:10 0.00,-104.98 -0.88,-108.93 449.79 80
5 06/07/2025 20:22:48 0.01,-105.51 0.28,-104.43 123.57 80
6 06/09/2025 08:47:20 -0.01,-106.30 0.77,-109.73 391.22 80
7 06/10/2025 08:25:58 -0.01,-106.82 -0.39,-105.23 181.70 80
8 06/11/2025 20:50:37 0.01,-107.63 -0.65,-110.56 333.66 80
9 06/12/2025 20:29:15 0.01,-108.16 0.46,-106.05 239.45 80
